Racine, WI

7:21 PM CDT on June 24, 2017 (GMT -0500)
Batten

Weather History for KRAC - September, 2013

Change the Weather History Date:

Tuesday, September 17, 2013

  Actual Average Record
Temperature  
Mean Temperature 60 °F -  
Max Temperature 66 °F 68 °F 91 °F (1948)
Min Temperature 55 °F 55 °F 41 °F (1981)
Degree Days  
Heating Degree Days 4    
Growing Degree Days 10 (Base 50)    
Moisture  
Dew Point 51 °F    
Average Humidity 68    
Maximum Humidity 82    
Minimum Humidity 61    
Precipitation  
Precipitation 0.00 in - - ()
Sea Level Pressure  
Sea Level Pressure 30.30 in    
Wind  
Wind Speed 7 mph (SSE)    
Max Wind Speed 16 mph    
Max Gust Speed 21 mph    
Visibility 10 miles    
Events      
Averages and records for this station are not official NWS values.
T = Trace of Precipitation, MM = Missing Value Source: NWS Daily Summary

Daily Weather History Graph

Daily Weather History Graph

Search for Another Location

Airport or City:

Trip Planner

Search our weather history database for the weather conditions in past years. The results will help you decide how hot, cold, wet, or windy it might be!

Date:

Astronomy

Sep. 17, 2013 Rise Set
Actual Time 6:33 AM CDT 6:57 PM CDT
Civil Twilight 6:05 AM CDT 7:25 PM CDT
Nautical Twilight 5:31 AM CDT 7:58 PM CDT
Astronomical Twilight 4:57 AM CDT 8:32 PM CDT
Moon 5:45 PM CDT (9/17) 4:25 AM CDT (9/17)
Length of Visible Light 13h 20m
Length of Day
12h 23m
Waxing Gibbous, 96% of the Moon is Illuminated
Sep 17
Waxing Gibbous
Sep 19
Full
Sep 26
Last Quarter
Oct 4
New
Oct 11
First Quarter

Hourly Weather History & Observations

Time (CDT) Temp. Dew Point Humidity Pressure Visibility Wind Dir Wind Speed Gust Speed Precip Events Conditions
12:53 AM 55.9 °F 48.0 °F 75% 30.36 in 10.0 mi ESE 5.8 mph - N/A   Scattered Clouds
1:53 AM 55.0 °F 48.0 °F 77% 30.36 in 10.0 mi Calm Calm - N/A   Mostly Cloudy
2:53 AM 57.9 °F 48.0 °F 70% 30.36 in 10.0 mi SE 6.9 mph - N/A   Mostly Cloudy
3:53 AM 57.9 °F 46.9 °F 67% 30.36 in 10.0 mi SE 5.8 mph - N/A   Clear
4:39 AM 59.0 °F 48.2 °F 67% 30.35 in 10.0 mi SSE 5.8 mph - N/A   Mostly Cloudy
4:53 AM 59.0 °F 48.9 °F 69% 30.35 in 10.0 mi SSE 6.9 mph - N/A   Mostly Cloudy
5:53 AM 57.0 °F 48.0 °F 72% 30.35 in 10.0 mi SSE 4.6 mph - N/A   Partly Cloudy
6:53 AM 59.0 °F 50.0 °F 72% 30.36 in 10.0 mi SSE 6.9 mph - N/A   Mostly Cloudy
7:53 AM 61.0 °F 51.1 °F 70% 30.36 in 10.0 mi South 5.8 mph - N/A   Mostly Cloudy
8:07 AM 57.2 °F 51.8 °F 82% 30.35 in 10.0 mi SSW 4.6 mph - N/A   Mostly Cloudy
8:16 AM 57.2 °F 51.8 °F 82% 30.35 in 10.0 mi SSW 5.8 mph - N/A   Mostly Cloudy
8:27 AM 60.8 °F 51.8 °F 72% 30.35 in 10.0 mi SW 4.6 mph - N/A   Mostly Cloudy
8:35 AM 60.8 °F 51.8 °F 72% 30.35 in 10.0 mi SW 4.6 mph - N/A   Scattered Clouds
8:53 AM 61.0 °F 52.0 °F 72% 30.36 in 10.0 mi Variable 4.6 mph - N/A   Mostly Cloudy
9:53 AM 63.0 °F 51.1 °F 65% 30.35 in 10.0 mi SSE 9.2 mph - N/A   Mostly Cloudy
10:10 AM 64.4 °F 51.8 °F 64% 30.35 in 10.0 mi SSE 12.7 mph - N/A   Mostly Cloudy
10:21 AM 60.8 °F 51.8 °F 72% 30.35 in - SE 11.5 mph 19.6 mph N/A   Mostly Cloudy
10:53 AM 64.9 °F 52.0 °F 63% 30.34 in - South 10.4 mph - N/A   Overcast
11:15 AM 64.4 °F 53.6 °F 68% 30.34 in 10.0 mi North - - N/A   Overcast
11:27 AM 64.4 °F 51.8 °F 64% 30.33 in 10.0 mi North - - N/A   Overcast
11:53 AM 64.0 °F 52.0 °F 65% 30.33 in 10.0 mi SSE 13.8 mph 20.7 mph N/A   Mostly Cloudy
12:00 PM 64.4 °F 51.8 °F 64% 30.33 in 10.0 mi SSE 15.0 mph 19.6 mph N/A   Mostly Cloudy
12:12 PM 64.4 °F 51.8 °F 64% 30.32 in 10.0 mi SE 16.1 mph - N/A   Mostly Cloudy
12:23 PM 64.4 °F 51.8 °F 64% 30.32 in 10.0 mi SSE 9.2 mph - N/A   Scattered Clouds
12:35 PM 64.4 °F 51.8 °F 64% 30.31 in 10.0 mi SE 12.7 mph - N/A   Mostly Cloudy
12:53 PM 64.0 °F 52.0 °F 65% 30.31 in 10.0 mi SE 13.8 mph - N/A   Mostly Cloudy
1:25 PM 66.2 °F 53.6 °F 64% 30.30 in 10.0 mi SSE 13.8 mph - N/A   Scattered Clouds
1:53 PM 64.9 °F 51.1 °F 61% 30.29 in 10.0 mi South 10.4 mph 19.6 mph N/A   Scattered Clouds
2:53 PM 64.9 °F 52.0 °F 63% 30.26 in 10.0 mi SE 11.5 mph 18.4 mph N/A   Partly Cloudy
3:53 PM 64.9 °F 52.0 °F 63% 30.24 in 10.0 mi SE 10.4 mph - N/A   Clear
4:53 PM 64.9 °F 51.1 °F 61% 30.22 in 10.0 mi SE 10.4 mph - N/A   Clear
5:53 PM 63.0 °F 51.1 °F 65% 30.20 in 10.0 mi SE 9.2 mph - N/A   Clear
6:53 PM 63.0 °F 53.1 °F 70% 30.19 in 10.0 mi SE 9.2 mph - N/A   Clear
7:53 PM 64.0 °F 53.1 °F 67% 30.18 in 10.0 mi SSE 5.8 mph - N/A   Clear
8:53 PM 64.9 °F 54.0 °F 68% 30.17 in 10.0 mi SSE 6.9 mph - N/A   Clear
9:53 PM 64.9 °F 54.0 °F 68% 30.17 in 10.0 mi SSE 8.1 mph - N/A   Clear
10:53 PM 64.9 °F 55.0 °F 70% 30.16 in 10.0 mi SSE 8.1 mph - N/A   Clear
11:53 PM 64.9 °F 55.0 °F 70% 30.14 in 10.0 mi SSE 8.1 mph - N/A   Clear